Regional Weather Roundup
Issued by NWS San Diego, CA

Home | Current Version | Previous Version | Text Only | Print | Product List | Glossary On
Versions: 1 2 3 4 5 6 7 8 9 10 11 12 13 14 15 16 17 18 19 20 21 22 23 24 25 26 27 28 29 30 31 32 33 34 35 36 37 38 39 40 41 42 43 44 45 46 47 48 49 50
000
ASUS46 KSGX 181810
RWRSGX

SAN DIEGO HOURLY WEATHER ROUNDUP
NATIONAL WEATHER SERVICE SAN DIEGO CA
1000 AM PST THU DEC 18 2014

NOTE: "FAIR" INDICATES FEW OR NO CLOUDS BELOW 12,000 FEET WITH NO
SIGNIFICANT WEATHER AND/OR OBSTRUCTIONS TO VISIBILITY.

CAZ042-043-060-061-PZZ750-775-181900-

GREATER SAN DIEGO AREA

CITY           SKY/WX    TMP DP  RH WIND       PRES   REMARKS
LINDBERGH FLD  PTSUNNY   60  47  61 S5        30.22R
POINT LOMA       N/A     59  50  72 E2          N/A
NATIONAL CITY    N/A     62  51  68 SE2       30.22R
CHULA VISTA      N/A     61  52  71 CALM      30.15R
IMPERIAL BEACH PTSUNNY   60  48  64 E6        30.21R
BROWN FIELD    PTSUNNY   58  47  66 SE7       30.21R
MIRAMAR MCAS   PTSUNNY   61  46  57 VRB3      30.20R
MONTGOMERY FLD MOSUNNY   59  47  64 CALM      30.21R

$$

NORTH SAN DIEGO COUNTY

CITY           SKY/WX    TMP DP  RH WIND       PRES   REMARKS
CAMP PENDLETON PTSUNNY   58  52  80 NE3       30.21R
OCEANSIDE AP   PTSUNNY   59  50  72 NE5       30.20R
OCEANSIDE HBR    N/A     60  52  74 N1        30.24R
VISTA            N/A     55  51  86 CALM      30.20R
CARLSBAD       CLOUDY    59  48  67 S3        30.20R
DEL MAR          N/A     61  53  75 CALM      30.23R
LA JOLLA SCRIP   N/A     61  53  74 CALM      30.18R
FALLBROOK        N/A     58  55  91 CALM      30.22R
ESCONDIDO        N/A     58  50  76 CALM      30.23R
SAN MARCOS       N/A     58  51  77 CALM      30.20R
POWAY            N/A     58  51  78 CALM      30.23R

$$

EAST SAN DIEGO COUNTY

CITY           SKY/WX    TMP DP  RH WIND       PRES   REMARKS
RAMONA         CLOUDY    54  46  74 CALM      30.20R
SANTEE LAKES     N/A     59  51  75 CALM      30.23R
LA MESA          N/A     60  51  70 CALM      30.16R
JAMUL            N/A     58  50  75 CALM      30.21S
DESCANSO N       N/A     47  42  82 NW3       30.13R
MT. LAGUNA OBS   N/A     35  35 100 W2        29.72
CAMPO            N/A     50  42  74 VRB6      30.15S

$$

ORANGE COUNTY AND THE LOS ANGELES BASIN

CITY           SKY/WX    TMP DP  RH WIND       PRES   REMARKS
JOHN WAYNE AP  PTSUNNY   62  45  53 CALM      30.20R
LAGUNA BEACH     N/A     60  53  76 S3        30.16R
LAKE FOREST FR   N/A     56  45  65 CALM      30.12R
SANTA ANA        N/A     64  53  67 CALM      30.15R
HUNTINGTON BCH   N/A     59  53  80 CALM      30.22R
LOS ALAMITOS   PTSUNNY   59  49  68 E3        30.20R
FULLERTON      PTSUNNY   60  46  59 VRB6      30.19R
LONG BEACH     PTSUNNY   60  49  66 CALM      30.20R
L.A. AP        PTSUNNY   57  46  66 VRB7      30.20R
L.A. DOWNTOWN  CLOUDY    58  44  60 E3        30.20R

$$

THE INLAND EMPIRE

CITY           SKY/WX    TMP DP  RH WIND       PRES   REMARKS
CORONA         SUNNY     55  48  77 CALM      30.22R
CHINO          MOSUNNY   55  46  71 E5        30.22R
ONTARIO        MOSUNNY   56  44  64 E5        30.20R
SAN BERNARDINO MOSUNNY   55  41  58 CALM      30.21R
RIVERSIDE AP   MOSUNNY   55  45  68 VRB3      30.21R
RIV CYN CREST    N/A     57  54  91 S5          N/A
MORENO VALLEY    N/A     54  51  90 SE3       29.38R
MARCH ARB      SUNNY     51  48  89 E5        30.21R
HORSETHIEF CYN   N/A     51  46  81 E1        30.22R
PERRIS           N/A     52  50  93 S2        30.23R
MENIFEE          N/A     53  50  87 S3        30.31R
HEMET EAST       N/A     51  40  65 CALM      30.22
FRENCH VALLEY  FAIR      54  45  71 S3        30.21R
TEMECULA         N/A     52  49  89 CALM      30.18R

$$

SAN BERNARDINO AND RIVERSIDE COUNTY MOUNTAINS

CITY           SKY/WX    TMP DP  RH WIND       PRES   REMARKS
BIG BEAR AP    SUNNY     32  19  59 W3        30.17R
ANGELUS OAKS     N/A     31  26  82 S1        30.26
PINE COVE        N/A     34  30  84 NW3       30.30R

$$

SOUTHERN DESERT INCLUDING THE COACHELLA VALLEY

CITY           SKY/WX    TMP DP  RH WIND       PRES   REMARKS
PALM SPRINGS   SUNNY     59  43  55 CALM      30.19S
THOUSAND PALMS   N/A     60  46  60 S2        30.15
THERMAL        SUNNY     59  46  62 VRB3      30.17S
BLYTHE         MOSUNNY   56  50  80 W3        30.18S
IMPERIAL AP    SUNNY     60  49  66 N6        30.18R
EL CENTRO NAS  MOSUNNY   62  45  53 N6        30.18R
YUMA AZ        MOSUNNY   58  49  72 N3        30.18R
MEXICALI       SUNNY     57  52  82 NW8       30.18

$$

UPPER DESERT

CITY           SKY/WX    TMP DP  RH WIND       PRES   REMARKS
VICTORVILLE AP   N/A     46  37  71 CALM      30.21R
HESPERIA         N/A     47  40  76 CALM      30.38R
APPLE VALLEY     N/A     49  38  65 CALM      30.23R
PALMDALE       CLOUDY    43  36  76 CALM      30.22R
LANCASTER      SUNNY     42  35  76 CALM      30.23R
EDWARDS AFB    MOSUNNY   43  35  73 N5        30.21R
DAGGETT        SUNNY     48  36  63 CALM      30.22R
29 PALMS N     MOSUNNY   48  38  68 CALM      30.27R
NEEDLES        SUNNY     56  46  69 NE3       30.20R

$$

REGIONAL REPORTS

CITY           SKY/WX    TMP DP  RH WIND       PRES   REMARKS
SANTA BARBARA  CLOUDY    58  47  66 E10       30.19R
SANDBERG       PTSUNNY   47  38  71 E7        30.19R
MT. WILSON       N/A     43  36  75 MISG        N/A
LAS VEGAS NV   CLOUDY    50  41  71 S5        30.17R
PHOENIX AZ     PTSUNNY   55  48  77 W3        30.14S
TIJUANA        PTSUNNY   57  45  62 E6        30.23R
ENSENADA NW      N/A     62  32  33 W6        30.19S

$$

OFFSHORE ISLANDS

CITY           SKY/WX    TMP DP  RH WIND       PRES   REMARKS
CATALINA ARPT  CLOUDY    55  48  77 NW5       30.21R
SAN CLEMENTE I PTSUNNY   62  50  65 W6        30.18S
SAN NICOLAS IS PTSUNNY   63  56  78 SW6       30.19R

$$

MARINE AND OFFSHORE BUOY REPORTS

STATION/POSITION SKY/WX   TEMP    WIND        PRES    SWELL
                          AIR SEA DIR/SP/G            HT/PER/DIR
                          (F)     (DEG/KT/KT) (MB)    (FT/S/D)
TANNER BANKS               59 64  330/  8/ 10 1022.7R   8/310/12
S CLEMENTE BASIN           62 65  280/  8/ 10 1022.7R   7/290/12
SAN NICOLAS IS.               62                N/A     5/280/11
SO. S. ROSA ISLA           61 62  240/  4/  6 1021.5R   8/14
W. S. BARBARA CH           57 61   70/ 14/ 17 1021.5R   7/280/14
S. MONICA BASIN            60 63  170/  2/  6 1022.9R   5/260/12
S PEDRO CHANNEL               64                N/A     2/270/11
DANA POINT                    64                N/A     2/220/14
CMP PENDLETON NS              64                N/A     2/240/11
OCEANSIDE OFFSHR              64                N/A     2/240/13
TORREY PINES OTR              65                N/A     3/280/12
LA JOLLA 1                 63 64  180/  1/  3 1023.0R
MISSION BAY BUOY              65                N/A     3/280/12
SAN DIEGO BAY                 65              1023.5R
POINT LOMA SOUTH              65                N/A     3/280/11

$$



USA.gov is the U.S. government's official web portal to all federal, state and local government web resources and services.